Regional Weather Roundup
Issued by NWS

Home | Current Version | Previous Version | Graphics & Text | Print | Product List | Glossary Off
Versions: 1 2 3 4 5 6 7 8 9 10 11 12 13 14 15 16 17 18 19 20 21 22 23 24 25 26 27 28 29 30 31 32 33 34 35 36 37 38 39 40 41 42 43 44 45 46 47 48 49 50

000
ASUS43 KMKX 301611
RWRWI

WISCONSIN REGIONAL WEATHER ROUNDUP
NATIONAL WEATHER SERVICE MILWAUKEE/SULLIVAN WI
1100 AM CDT WED JUL 30 2014

NOTE: "FAIR" INDICATES FEW OR NO CLOUDS BELOW 12,000 FEET WITH NO
SIGNIFICANT WEATHER AND/OR OBSTRUCTIONS TO VISIBILITY.

WIZ001-002-006>008-014>016-023>028-301700-
NORTHWEST WISCONSIN

CITY           SKY/WX    TMP DP  RH WIND       PRES   REMARKS
SUPERIOR ARPT  SUNNY     67  59  74 SW7       30.05F
ASHLAND        SUNNY     66  59  78 VRB6      30.06F
HAYWARD        MOSUNNY   62  58  86 W5        30.09S
SIREN          SUNNY     68  58  69 SW3       30.09S
RICE LAKE      MOSUNNY   61  60  96 CALM      30.11S
LADYSMITH      CLOUDY    62  57  84 CALM      30.12S
EAU CLAIRE     MOSUNNY   64  57  78 CALM      30.09S
MENOMONIE      SUNNY     69  57  65 SE3       30.09S
NEW RICHMOND   SUNNY     71  55  58 CALM      30.10S
OSCEOLA        SUNNY     71  58  64 CALM      30.12S
$$

WIZ003>005-009-010-017-018-301700-
NORTH CENTRAL WISCONSIN

CITY           SKY/WX    TMP DP  RH WIND       PRES   REMARKS
WOODRUFF       SUNNY     68  59  72 W7        30.08R
RHINELANDER    SUNNY     65  52  62 W8        30.08S
EAGLE RIVER    SUNNY     65  47  53 W5        30.06F
LAND O LAKES   SUNNY     66  45  46 CALM      30.07S
PHILLIPS       PTSUNNY   61  57  85 CALM      30.09S
TOMAHAWK       PTSUNNY   56  55  97 NW5       30.09S
MEDFORD        MOSUNNY   61  57  86 CALM      30.10R
MERRILL        MOSUNNY   61  57  84 W5        30.08S
$$

WIZ029-030-035-036-043>047-301700-
CENTRAL WISCONSIN

CITY           SKY/WX    TMP DP  RH WIND       PRES   REMARKS
WAUSAU         SUNNY     65  53  65 W6        30.06S
MOSINEE        SUNNY     66  52  59 NW3       30.09S
MARSHFIELD     SUNNY     67  54  63 NW6       30.08S
STEVENS POINT  MOSUNNY   67  49  52 NW3       30.07S
WAUPACA        MOSUNNY   70  53  56 NE5       30.06S
WAUTOMA        SUNNY     70  55  58 CALM      30.07S
WISC RAPIDS    SUNNY     70  53  54 VRB5      30.08S
CAMP DOUGLAS   PTSUNNY   63  63 100 W6        30.09R
$$

WIZ011>013-019>022-031-037>040-048>050-301700-
NORTHEAST WISCONSIN

CITY           SKY/WX    TMP DP  RH WIND       PRES   REMARKS
ANTIGO         MOSUNNY   64  52  64 NW8       30.08S
STURGEON BAY   SUNNY     63  54  72 NW7       30.05S
GREEN BAY      SUNNY     69  54  58 VRB5      30.05S
MANITOWOC      MOSUNNY   67  53  61 N3        30.05S
APPLETON       PTSUNNY   66  54  63 N8        30.06S
CLINTONVILLE   SUNNY     68  50  52 NE3       30.06S
OSHKOSH        PTSUNNY   67  56  67 CALM      30.05S
$$

WIZ032>034-041-042-053>061-301700-
SOUTHWEST WISCONSIN

CITY           SKY/WX    TMP DP  RH WIND       PRES   REMARKS
LA CROSSE      SUNNY     70  60  70 NW7       30.08S
SPARTA         CLOUDY    63  57  80 CALM      30.10S
VIROQUA        FAIR      68  59  72 NW8       30.10R
BOSCOBEL       SUNNY     74  60  61 NW6       30.07F
PRAIRIE DU CHI SUNNY     71  56  58 NW5       30.08S
PLATTEVILLE    FAIR      70  60  69 NW6       30.09S
$$

WIZ056-057-062-063-064-067-068-301700-
SOUTH CENTRAL WISCONSIN

CITY           SKY/WX    TMP DP  RH WIND       PRES   REMARKS
BARABOO/DELLS  PTSUNNY   64  55  71 NW3       30.08S
LONE ROCK      SUNNY     74  59  59 NW8       30.07S
WATERTOWN      CLOUDY    62  59  91 CALM      30.07R
MADISON        MOSUNNY   70  59  68 VRB7      30.07R
MIDDLETON      FAIR      71  57  61 NW7       30.07S
MONROE         SUNNY     70  59  68 NW7       30.07S
JANESVILLE     MOSUNNY   72  55  56 NW6       30.05S
$$

WIZ051-052-058>065-066-070>072-301700-
SOUTHEAST WISCONSIN

CITY           SKY/WX    TMP DP  RH WIND       PRES   REMARKS
MILWAUKEE      PTSUNNY   67  59  75 NE9       30.06R
WAUKESHA       NOT AVBL
MILWAUKEE/TIMM CLOUDY    64  57  77 N5        30.06R
RACINE         CLOUDY    67  59  75 NE9       30.07R
BURLINGTON     MOSUNNY   67  58  74 N5        30.06R
KENOSHA        PTSUNNY   69  60  73 VRB6      30.05S
FOND DU LAC    SUNNY     68  56  65 NE8       30.06S
SHEBOYGAN      MOSUNNY   66  55  67 N3        30.05S
WEST BEND      CLOUDY    64  54  68 N6        30.06R
JUNEAU         PTSUNNY   66  57  74 N5        30.07S
$$

LSZ147-162-301700-
LAKE SUPERIOR

STATION/POSITION TIME  TEMP    WIND        PRES    WAVE
                       AIR SEA DIR/SP/G            HT/PER
                 (UTC) (F)     (DEG/KT/KT) (MB)    (FT/S)
W MID LAKE BUOY  1550   46 42  220/ 10/ 10 1017.1F   0
PORT WING        1500   60     230/  4/  7 1017.9F
SAXON HARBOR     1500          200/  4/  8 1017.9F
$$

LMZ867-665-643>646-301700-
LAKE MICHIGAN

STATION/POSITION TIME  TEMP    WIND        PRES    WAVE
                       AIR SEA DIR/SP/G            HT/PER
                 (UTC) (F)     (DEG/KT/KT) (MB)    (FT/S)
N MID LAKE BUOY  1550   52 53   60/  6/  6 1016.7S   1
NORTHPORT PIER   1500   59     320/  6/  8 1017.3S
SISTER BAY       1440   62     360/  9/ 11   N/A
KEWAUNEE LAKESHO 1500   61     150/  3/  5 1017.9S
SHEBOYGAN LAKESH 1600   59      40/  6/  6 1017.9R
PORT WASHINGTON  1500   63      40/  8/ 10 1017.9R
ATWATER BUOY     1600   62      10/  8     1018.7R
MILWAUKEE LAKESH 1500   61      40/ 11/ 12   N/A
S MID LAKE BUOY  1550   60 60  310/  8/ 10 1017.6R   1
KENOSHA   LAKESH 1600   62      40/  9/ 11 1017.3R
$$

TC  - TEMPERATURE IN CELSIUS
VSB - VISIBILITY IN STATUTE MILES
WCI - WIND CHILL INDEX
HX  - HEAT INDEX




USA.gov is the U.S. government's official web portal to all federal, state and local government web resources and services.